Content
SEND FEEDBACK

Daily
Averages
Monthly
Summary
United States of America

CHICAGO, ILLINOIS


Home > North America > United States > Illinois
Elevation: 674 feet     Latitude: 41 59N     Longitude: 087 54W

WEATHER
 
SELECT A DAY
Number of Records: 195,110;   Date Range: 7/8/95 - 9/18/14
 
SHARE

PRINT THIS DATA

[ ← Previous Day ]
WEATHER ALMANAC - JULY 20, 2014
[ Next Day → ]
[ °C ]   °F
Weather ElementAverageHighLow
Temperature73.3 °F82.9 °F (4:52 pm)61 °F (4:52 am)
Dewpoint56.9 °F60.1 °F (7:52 am)53.1 °F (12:52 pm)
Humidity59.3 %87 % (5:52 am)39 % (12:52 pm)
Barometer30.04 in30.08 in (7:52 am)30.01 in (4:52 pm)
Wind Speed2.8 mph8.1 mph (3:52 pm)
Weather ElementAverage
Visibility9.8 mi
Wind DirectionESE (103.2 °)

Weather ElementTotal
Precipitation---
Cooling Degree Days7 (Base 65)
Growing Degree Days22 (Base 50)
Averaged from 22 records on July 20, 2014
WEATHER CONDITIONS BREAKOUT
WIND DIRECTION BREAKOUT
WEATHER BY HOUR - JULY 20, 2014
[ °C ]   °F
Local TimeTemperatureDewpointHumidityBarometerVisibilityWind DirectionWind SpeedGust SpeedPrecipitationEventsConditions
1:52 AM64.0 °F57.0 °F78 %30.04 in10.0 miCalmClear
2:52 AM63.0 °F57.0 °F81 %30.04 in10.0 miCalmClear
3:52 AM62.1 °F57.0 °F84 %30.03 in10.0 miCalmClear
4:52 AM61.0 °F55.9 °F83 %30.05 in10.0 miCalmClear
5:52 AM61.0 °F57.0 °F87 %30.05 in9.0 miCalmClear
6:52 AM64.0 °F57.9 °F80 %30.07 in9.0 miCalmClear
7:52 AM69.1 °F60.1 °F73 %30.08 in8.0 miCalmClear
8:52 AM73.9 °F59.0 °F59 %30.08 in10.0 miSSW (210°)4.6 mphClear
9:52 AM75.9 °F57.9 °F54 %30.08 in10.0 miSSW (210°)6.9 mphClear
11:52 AM79.0 °F55.0 °F44 %30.06 in10.0 miNorthClear
12:52 PM80.1 °F53.1 °F39 %30.05 in10.0 miSW (230°)3.5 mphPartly Cloudy
1:52 PM81.0 °F55.0 °F41 %30.04 in10.0 miSSW (200°)4.6 mphMostly Cloudy
2:52 PM81.0 °F55.0 °F41 %30.04 in10.0 miWSW (240°)3.5 mphOvercast
3:52 PM81.0 °F55.0 °F41 %30.03 in10.0 miSSE (160°)8.1 mphMostly Cloudy
4:52 PM82.9 °F55.9 °F39 %30.01 in10.0 miSSE (160°)3.5 mphOvercast
5:52 PM82.0 °F55.9 °F41 %30.01 in10.0 miSSW (210°)6.9 mphMostly Cloudy
6:52 PM80.1 °F55.9 °F43 %30.01 in10.0 miSSW (210°)6.9 mphClear
7:52 PM79.0 °F57.0 °F47 %30.01 in10.0 miSSW (210°)6.9 mphClear
8:52 PM77.0 °F57.9 °F52 %30.02 in10.0 miSW (230°)3.5 mphClear
9:52 PM75.9 °F57.9 °F54 %30.05 in10.0 miCalmClear
10:52 PM71.1 °F60.1 °F68 %30.05 in10.0 miCalmClear
11:52 PM68.0 °F60.1 °F76 %30.04 in10.0 miCalmClear
Hourly data recorded from KPWK, located miles away from Chicago, Illinois







STORIES FROM OUR PARTNERS